Weather reports worldwide

Advertisment
Catania/Sigonella, Italy (16459): temperature & dewpoint: 12.10.2018 19:00:00 - 18.10.2018 19:00:00 (CEST)Catania/Sigonella, Italy (16459): wind speed: 12.10.2018 19:00:00 - 18.10.2018 19:00:00 (CEST)Catania/Sigonella, Italy (16459): wind direction: 12.10.2018 19:00:00 - 18.10.2018 19:00:00 (CEST)Catania/Sigonella, Italy (16459): reduced air pressure: 12.10.2018 19:00:00 - 18.10.2018 19:00:00 (CEST)Catania/Sigonella, Italy (16459): visibility: 12.10.2018 19:00:00 - 18.10.2018 19:00:00 (CEST)
Date & Time tt [°C] td [°C] ff [km/h] ff [kn] dd ppp [hPa] vv [km]
18.10.2018 19:00:00 - - - - - - -
18.10.2018 18:00:00 25,0 25,0 - - - - 6
18.10.2018 17:00:00 25,2 25,2 35 19 ENE 1009,4 6
18.10.2018 16:00:00 25,0 25,0 - - - - 6
18.10.2018 15:00:00 26,0 26,0 - - - - 8
18.10.2018 14:00:00 25,2 25,2 37 20 ENE 1010,5 8
18.10.2018 13:00:00 26,0 26,0 - - - - 8
18.10.2018 12:00:00 25,0 25,0 - - - - 7
18.10.2018 11:00:00 25,0 25,0 37 20 E 1012,2 7
18.10.2018 10:00:00 25,0 25,0 - - - - 7
18.10.2018 09:00:00 25,0 25,0 - - - - 7
18.10.2018 08:00:00 24,4 24,4 31 17 E 1011,5 8
18.10.2018 07:00:00 24,0 24,0 - - - - 9
18.10.2018 06:00:00 24,0 24,0 - - - - 10
18.10.2018 05:00:00 24,4 24,4 29 16 E 1011,3 10
18.10.2018 04:00:00 24,0 24,0 - - - - 10
18.10.2018 03:00:00 24,0 24,0 - - - - 10
18.10.2018 02:00:00 24,4 24,4 22 12 E 1013,0 10
18.10.2018 01:00:00 24,0 24,0 - - - - 10
18.10.2018 00:00:00 24,0 24,0 - - - - 10
17.10.2018 23:00:00 23,8 23,8 21 11 E 1014,3 10
17.10.2018 22:00:00 24,0 24,0 - - - - 10
17.10.2018 21:00:00 24,0 24,0 - - - - 10
17.10.2018 20:00:00 24,0 24,0 16 9 E 1013,9 10
17.10.2018 19:00:00 25,0 25,0 - - - - 10
17.10.2018 18:00:00 26,0 26,0 - - - - 10
17.10.2018 17:00:00 26,2 26,2 28 15 E 1013,9 10
17.10.2018 16:00:00 27,0 26,0 - - - - 10
17.10.2018 15:00:00 28,0 27,0 - - - - 8
17.10.2018 14:00:00 27,4 26,5 28 15 E 1015,0 8
17.10.2018 13:00:00 27,0 26,0 - - - - 8
17.10.2018 12:00:00 27,0 27,0 - - - - 7
17.10.2018 11:00:00 25,0 25,0 4 2 E 1016,1 6
17.10.2018 10:00:00 23,0 23,0 - - - - 6
17.10.2018 09:00:00 21,0 21,0 - - - - 5
17.10.2018 08:00:00 20,0 20,0 9 5 W 1016,2 7
17.10.2018 07:00:00 20,0 20,0 - - - - 6
17.10.2018 06:00:00 20,0 20,0 - - - - 6
17.10.2018 05:00:00 20,0 20,0 11 6 W 1016,5 6
17.10.2018 04:00:00 20,0 20,0 - - - - 6
17.10.2018 03:00:00 20,0 20,0 - - - - 6
17.10.2018 02:00:00 21,6 21,6 0 0 N 1017,5 7
17.10.2018 01:00:00 22,0 22,0 - - - - 7
17.10.2018 00:00:00 23,0 23,0 - - - - 10
16.10.2018 23:00:00 23,0 23,0 9 5 ENE 1017,8 10
16.10.2018 22:00:00 23,0 23,0 - - - - 10
16.10.2018 21:00:00 23,0 23,0 - - - - 10
16.10.2018 20:00:00 23,6 23,6 5 3 E 1017,4 10
16.10.2018 19:00:00 24,0 24,0 - - - - 9
16.10.2018 18:00:00 26,0 26,0 - - - - 9
16.10.2018 17:00:00 26,6 26,1 15 8 E 1016,6 9
16.10.2018 16:00:00 27,0 27,0 - - - - 9
16.10.2018 15:00:00 28,0 23,0 - - - - 9
16.10.2018 14:00:00 28,0 23,8 8 4 E 1017,2 9
16.10.2018 13:00:00 27,0 25,0 - - - - 8
16.10.2018 12:00:00 26,0 26,0 - - - - 8
16.10.2018 11:00:00 25,0 25,0 2 1 WSW 1017,4 8
16.10.2018 10:00:00 23,0 23,0 - - - - 7
16.10.2018 09:00:00 22,0 22,0 - - - - 7
16.10.2018 08:00:00 19,2 19,2 8 4 W 1016,9 8
16.10.2018 07:00:00 20,0 20,0 - - - - 8
16.10.2018 06:00:00 20,0 20,0 - - - - 10
16.10.2018 05:00:00 20,4 20,4 8 4 W 1016,6 10
16.10.2018 04:00:00 20,0 20,0 - - - - 10
16.10.2018 03:00:00 21,0 21,0 - - - - 10
16.10.2018 02:00:00 20,8 20,8 4 2 WNW 1016,8 10
16.10.2018 01:00:00 21,0 21,0 - - - - 10
16.10.2018 00:00:00 21,0 21,0 - - - - 10
15.10.2018 23:00:00 21,8 21,8 4 2 NNW 1016,5 10
15.10.2018 22:00:00 22,0 22,0 - - - - 10
15.10.2018 21:00:00 23,0 23,0 - - - - 10
15.10.2018 20:00:00 23,4 23,4 11 6 NE 1015,0 10
15.10.2018 19:00:00 24,0 24,0 - - - - 10
15.10.2018 18:00:00 24,0 24,0 - - - - 10
15.10.2018 17:00:00 23,8 23,8 9 5 ESE 1013,7 10
15.10.2018 16:00:00 25,0 25,0 - - - - 8
15.10.2018 15:00:00 25,0 25,0 - - - - 10
15.10.2018 14:00:00 25,0 25,0 4 2 S 1013,5 10
15.10.2018 13:00:00 25,0 25,0 - - - - 8
15.10.2018 12:00:00 22,0 22,0 - - - - 7
15.10.2018 11:00:00 22,0 22,0 21 11 E 1013,1 3,0
15.10.2018 10:00:00 22,0 22,0 - - - - 4,0
15.10.2018 09:00:00 21,0 21,0 - - - - 7
15.10.2018 08:00:00 21,0 21,0 8 4 E 1011,5 7
15.10.2018 07:00:00 20,0 20,0 - - - - 7
15.10.2018 06:00:00 20,0 20,0 - - - - 10
15.10.2018 05:00:00 21,8 21,8 5 3 W 1011,3 10
15.10.2018 04:00:00 22,0 22,0 - - - - 10
15.10.2018 03:00:00 22,0 22,0 - - - - 5
15.10.2018 02:00:00 22,0 22,0 18 10 E 1011,5 8
15.10.2018 01:00:00 22,0 22,0 - - - - 4,0
15.10.2018 00:00:00 21,0 21,0 - - - - 2,5
14.10.2018 23:00:00 22,0 22,0 21 11 ENE 1012,5 3,0
14.10.2018 22:00:00 21,0 21,0 - - - - 4,0
14.10.2018 21:00:00 21,0 21,0 - - - - 4,0
14.10.2018 20:00:00 21,2 21,2 11 6 ENE 1013,4 3,5
14.10.2018 19:00:00 22,0 22,0 - - - - 8
14.10.2018 18:00:00 22,0 22,0 - - - - 8
14.10.2018 17:00:00 22,4 22,4 16 9 ENE 1013,5 8
14.10.2018 16:00:00 23,0 23,0 - - - - 8
14.10.2018 15:00:00 22,0 22,0 - - - - 7
14.10.2018 14:00:00 22,2 22,2 16 9 NE 1014,8 3,5
14.10.2018 13:00:00 22,0 22,0 - - - - 4,0
14.10.2018 12:00:00 22,0 22,0 - - - - 4,0
14.10.2018 11:00:00 21,4 21,4 18 10 NE 1016,7 5
14.10.2018 10:00:00 21,0 21,0 - - - - 3,5
14.10.2018 09:00:00 21,0 21,0 - - - - 4,0
14.10.2018 08:00:00 20,6 20,6 18 10 NE 1017,0 5
14.10.2018 07:00:00 20,0 20,0 - - - - 3,0
14.10.2018 06:00:00 20,0 20,0 - - - - 8
14.10.2018 05:00:00 21,0 21,0 4 2 W 1017,5 12
14.10.2018 04:00:00 21,0 21,0 - - - - 10
14.10.2018 03:00:00 21,0 21,0 - - - - 10
14.10.2018 02:00:00 21,2 21,2 9 5 NE 1018,8 9
14.10.2018 01:00:00 20,0 20,0 - - - - 5
14.10.2018 00:00:00 21,0 21,0 - - - - 10
13.10.2018 23:00:00 20,6 20,6 8 4 SE 1019,8 13
13.10.2018 22:00:00 22,0 22,0 - - - - 10
13.10.2018 21:00:00 22,0 21,0 - - - - 10
13.10.2018 20:00:00 21,0 21,0 11 6 E 1020,4 10
13.10.2018 19:00:00 21,0 21,0 - - - - 8
13.10.2018 18:00:00 22,0 22,0 - - - - 9
13.10.2018 17:00:00 23,0 23,0 11 6 E 1019,5 9
13.10.2018 16:00:00 23,0 23,0 - - - - 8
13.10.2018 15:00:00 23,0 23,0 - - - - 7
13.10.2018 14:00:00 22,2 22,2 8 4 S 1021,2 6
13.10.2018 13:00:00 21,0 21,0 - - - - 6
13.10.2018 12:00:00 21,0 21,0 - - - - 6
13.10.2018 11:00:00 21,0 21,0 0 0 N 1022,0 5
13.10.2018 10:00:00 20,0 20,0 - - - - 4,0
13.10.2018 09:00:00 21,0 21,0 - - - - 6
13.10.2018 08:00:00 20,8 20,8 5 3 SE 1021,2 6
13.10.2018 07:00:00 21,0 21,0 5 3 NE - 7
13.10.2018 06:00:00 21,0 21,0 5 3 WNW - 10
13.10.2018 05:00:00 20,8 20,8 8 4 W 1021,4 10
13.10.2018 04:00:00 21,0 21,0 8 4 NE - 10
13.10.2018 03:00:00 21,0 21,0 9 5 NNE - 10
13.10.2018 02:00:00 21,0 21,0 8 4 ENE 1022,4 10
13.10.2018 01:00:00 21,0 21,0 8 4 NE - 10
13.10.2018 00:00:00 21,0 21,0 11 6 NE - 7
12.10.2018 23:00:00 21,0 21,0 11 6 ENE 1022,5 1,5
12.10.2018 22:00:00 21,0 21,0 2 1 S - 1,5
12.10.2018 21:00:00 21,0 21,0 2 1 NNE - 9
12.10.2018 20:00:00 21,6 21,6 11 6 ENE 1021,9 8
12.10.2018 19:00:00 22,0 22,0 11 6 ENE - 9

tt = temperature
td = dewpoint
ff = wind speed
dd = wind direction
ppp = reduced air pressure
vv = visibility

Next stations